Weather in Novodoroninsk

Russia / Zabaykalsky Krai     51°32′06″N   113°51′51″E
temp.,
°C
wind,
m/s
gust,
m/s
humid.,
%
clouds,
%
prec.,
mm/h
press.,
hPa
HPBL,
m
16 april, fri
fri1600:00−2wnw225069 0.1 101349
03:00−5w22620 0.1 101520
06:00−6w22660 0.0 101722
09:00−1nw37460 0.0 1018552
12:00+4nnw57225 0.0 10172512
15:00+6nnw46165 0.0 10152893
18:00+7nw57175 0.0 10152350
21:00+2w23365 0.0 101728
17 april, sat
sat1700:00−1sw33495 0.0 101749
03:00−2sw33555 0.0 101644
06:00−3sw225616 0.0 101633
09:00+4wsw273149 0.0 1013395
12:00+12w582145 0.0 10091230
15:00+15w571845 0.0 10052224
18:00+16wsw58185 0.0 10032841
21:00+9wsw22334 0.0 100411
18 april, sun
sun1800:00+5sw22420 0.0 100510
03:00+3wsw11505 0.0 100510
06:00+2wsw215595 0.0 100610
09:00+7wnw2640100 0.0 1006309
12:00+12wnw683350 0.0 10061594
15:00+11wnw7102817 0.0 10071973
18:00+11nw711212 0.0 10082527
21:00+5nw612220 0.0 1014769
19 april, mon
mon1900:00+1nw511280 0.0 1018630
03:00−3nw234332 0.0 102254
06:00−5nw11530 0.0 102410
09:00−1ene22401 0.0 1024910
12:00+3e22220 0.0 10221322
15:00+7ese35174 0.0 10171765
18:00+9sse67203 0.0 10131865
21:00+5se6142559 0.0 1014596
20 april, tue
tue2000:00+6s515270 0.0 1011684
03:00+5sse39312 0.0 1009269
06:00+2sse11388 0.0 100910
09:00+7wnw253398 0.0 1009406
12:00+12nw4530100 0.0 10081271
15:00+14nw4619100 0.0 10082165
18:00+12nnw4423100 0.0 10081479
21:00+7n2535100 0.0 1011142